This is the latest recevied weather packets stored in our database for station/object KA1JKB. If no packets are shown the sender has not sent any weather packets the latest 10 day(s).
| Time | Temp. | Humidity | Pressure | Rain* | Wind** | Luminosity | Snow |
|---|---|---|---|---|---|---|---|
| 1777548952 | 3.33° C | 99% | 1012.1 hPa | 0 mm | - | 35 W/m² | - |
| 1777548649 | 3.33° C | 99% | 1011.9 hPa | 0 mm | - | 33 W/m² | - |
| 1777548345 | 3.89° C | 99% | 1011.8 hPa | 0 mm | - | 31 W/m² | - |
| 1777548043 | 3.89° C | 99% | 1011.8 hPa | 0 mm | - | 30 W/m² | - |
| 1777547739 | 3.33° C | 99% | 1011.7 hPa | 0 mm | - | 29 W/m² | - |
| 1777547435 | 3.33° C | 99% | 1011.8 hPa | 0 mm | - | 25 W/m² | - |
| 1777547133 | 3.89° C | 99% | 1011.9 hPa | 0 mm | - | 19 W/m² | - |
| 1777546830 | 3.89° C | 99% | 1011.7 hPa | 0 mm | - | 16 W/m² | - |
| 1777546526 | 3.89° C | 99% | 1011.6 hPa | 0 mm | - | 12 W/m² | - |
| 1777546223 | 3.89° C | 99% | 1011.9 hPa | 0 mm | - | 10 W/m² | - |
| 1777545921 | 3.89° C | 99% | 1011.9 hPa | 0 mm | - | 6 W/m² | - |
| 1777545617 | 3.89° C | 99% | 1011.8 hPa | 0 mm | - | 4 W/m² | - |
| 1777545313 | 3.89° C | 99% | 1011.5 hPa | 0 mm | - | 1 W/m² | - |
| 1777545011 | 3.89° C | 99% | 1011.7 hPa | 0 mm | - | 0 W/m² | - |
| 1777544708 | 3.89° C | 99% | 1011.4 hPa | 0 mm | - | 0 W/m² | - |
| 1777544403 | 3.89° C | 99% | 1011.6 hPa | 0 mm | - | 0 W/m² | - |
| 1777544099 | 3.89° C | 99% | 1011.5 hPa | 0 mm | - | 0 W/m² | - |
| 1777543797 | 3.89° C | 99% | 1011.7 hPa | 0 mm | - | 0 W/m² | - |
| 1777543493 | 3.89° C | 99% | 1011.4 hPa | 0 mm | - | 0 W/m² | - |
| 1777543190 | 3.89° C | 99% | 1011.4 hPa | 0 mm | - | 0 W/m² | - |
| 1777542885 | 3.89° C | 99% | 1011.5 hPa | 0 mm | - | 0 W/m² | - |
| 1777542582 | 3.89° C | 99% | 1011.6 hPa | 0 mm | - | 0 W/m² | - |
| 1777542278 | 3.89° C | 99% | 1011.2 hPa | 0 mm | - | 0 W/m² | - |
| 1777541976 | 3.89° C | 99% | 1011.4 hPa | 0 mm | - | 0 W/m² | - |
| 1777541673 | 3.89° C | 99% | 1011.5 hPa | 0 mm | - | 0 W/m² | - |
* Rain latest hour (hover to see other rain measurements)
** Current wind speed in m/s (hover to see current wind gust speed)